Simultaneous Nadir Overpasses (SNOs) Predictions

Prediction of SNOs between AQUA and GOES-15 Satellite Orbit:

Table of predicted SNOs for the next 14.0 days since TLE Epoch: 4/29/2023
Index Date Time (AQUA) AQUA Lat,Lon GOES-15 Lat,Lon Distance(km) Time Diff (sec)
1 04/29/2023 22:54:37 0.72,-136.85 -0.14,-140.73 441.60 80
2 04/30/2023 11:15:27 0.29,-141.91 0.12,-141.00 102.04 80
3 05/02/2023 11:01:35 -0.58,-138.55 0.13,-141.95 387.09 80
4 05/02/2023 23:22:33 -0.40,-143.64 -0.11,-142.17 167.45 80
5 05/04/2023 23:08:41 0.46,-140.28 -0.12,-143.11 321.09 80
6 05/05/2023 11:29:30 0.54,-145.33 0.09,-143.38 222.92 80
7 05/07/2023 11:15:38 -0.42,-141.99 0.10,-144.31 264.45 80
8 05/07/2023 23:36:35 -0.65,-147.06 -0.08,-144.51 290.73 80
9 05/09/2023 23:22:42 0.30,-143.71 -0.09,-145.43 195.70 80
10 05/10/2023 11:43:31 0.75,-148.76 0.07,-145.69 348.86 80
11 05/12/2023 11:29:37 -0.18,-145.39 0.08,-146.60 137.13 80
12 05/12/2023 23:50:34 -0.86,-150.48 -0.06,-146.80 418.28 80
